Flag for Germany Weather past 2 weeks in Oranienburg, Brandenburg, Germany

Now
71 °F

Overcast.


Feels Like: 71 °F
Forecast: 67 / 85 °F
Wind: 1 mph from East

Location: Berlin-Tegel

Current Time: Jul 28, 2014 at 8:18:02 AM

Latest Report: Jul 28, 2014 at 7:00 AM


Visibility: 11 mi

Pressure: 29.92 "Hg

Humidity: 79%

Dew point: 64 °F

Location of OranienburgLocation

Historic Weather in Oranienburg — Graph

°F

Oranienburg temperature yesterday

Maximum temperature yesterday: 88 °F (at 3:00 PM)
Minimum temperature yesterday: 68 °F (at 6:00 AM)
Average temperature yesterday: 77 °F

Past Weeks' High & Low Weather Summary

 TemperatureHumidityPressure
High93 °F (Jul 20, 3:00 PM)96% (Jul 26, 7:00 AM)30.19 "Hg (Jul 26, 7:00 AM)
Low57 °F (Jul 13, 7:00 AM)21% (Jul 19, 4:00 PM)29.73 "Hg (Jul 13, 6:00 PM)
Average73 °F61%29.98 "Hg
* Reported Jul 13 7:00 AM — Jul 28 7:00 AM, Oranienburg, Weather by CustomWeather, © 2014

Note: Actual official high and low records may vary slightly from our data, if they occured in-between our weather recording intervals... More about our weather records

Advertising

Oranienburg weather history for previous 24 hours

 ConditionsComfort  
Time TempWeatherWind HumidityBarometerVisibility
7:00 AM
Jul 28
71 °FOvercast.1 mph79%29.92 "Hg11 mi
6:00 AM70 °FOvercast.1 mph81%29.91 "Hg7 mi
5:00 AM70 °FOvercast.2 mph86%29.90 "Hg22 mi
4:00 AM70 °FOvercast.1 mph83%29.92 "Hg22 mi
3:00 AM70 °FOvercast.1 mph82%29.92 "Hg25 mi
2:00 AM71 °FPassing clouds.2 mph78%29.93 "Hg25 mi
1:00 AM71 °FOvercast.3 mph75%29.94 "Hg25 mi
12:00 AM72 °FPassing clouds.3 mph76%29.93 "Hg22 mi
11:00 PM
Jul 27
74 °FLight rain. Overcast.3 mph73%29.93 "Hg19 mi
10:00 PM75 °FOvercast.1 mph70%29.93 "Hg22 mi
9:00 PM76 °FOvercast.3 mph70%29.93 "Hg19 mi
8:00 PM76 °FSprinkles. Overcast.5 mph65%29.92 "Hg19 mi
7:00 PM80 °FOvercast.3 mph50%29.90 "Hg19 mi
6:00 PM83 °FOvercast.2 mph46%29.89 "Hg19 mi
5:00 PM85 °FPartly sunny.3 mph37%29.89 "Hg19 mi
4:00 PM87 °FPartly sunny.1 mph31%29.90 "Hg19 mi
3:00 PM88 °FPartly sunny.2 mph28%29.90 "Hg19 mi
2:00 PM86 °FOvercast.2 mph33%29.92 "Hg19 mi
1:00 PM83 °FPartly sunny.1 mph50%29.93 "Hg16 mi
12:00 PM83 °FPartly sunny.2 mph53%29.93 "Hg12 mi
11:00 AM81 °FPartly sunny.2 mph56%29.94 "Hg12 mi
10:00 AM80 °FPartly sunny.1 mph57%29.94 "Hg11 mi
9:00 AM78 °FScattered clouds.1 mph62%29.94 "Hg11 mi
8:00 AM73 °FOvercast.1 mph71%29.94 "Hg12 mi
Weather by CustomWeather, © 2014

See weather overviewHow to use our weather pages